This is the latest recevied weather packets stored in our database for station/object WP4PW. If no packets are shown the sender has not sent any weather packets the latest 10 day(s).
| Time | Temp. | Humidity | Pressure | Rain* | Wind** | Luminosity | Snow |
|---|---|---|---|---|---|---|---|
| 1778167619 | 30° C | 79% | 1022.1 hPa | 0 mm | - | 804 W/m² | - |
| 1778167315 | 30° C | 77% | 1022.3 hPa | 0 mm | - | 791 W/m² | - |
| 1778167011 | 29.44° C | 78% | 1022.2 hPa | 0 mm | - | 791 W/m² | - |
| 1778166709 | 30° C | 76% | 1022.2 hPa | 0 mm | - | 786 W/m² | - |
| 1778166406 | 30° C | 79% | 1022.2 hPa | 0 mm | - | 786 W/m² | - |
| 1778166102 | 30° C | 78% | 1022.1 hPa | 0 mm | - | 804 W/m² | - |
| 1778165797 | 30° C | 79% | 1022.3 hPa | 0 mm | - | 769 W/m² | - |
| 1778165496 | 30° C | 78% | 1022.1 hPa | 0 mm | - | 736 W/m² | - |
| 1778165191 | 30° C | 77% | 1022 hPa | 0 mm | - | 742 W/m² | - |
| 1778164890 | 29.44° C | 78% | 1022 hPa | 0 mm | - | 733 W/m² | - |
| 1778164586 | 30° C | 78% | 1022 hPa | 0 mm | - | 724 W/m² | - |
| 1778164284 | 30° C | 77% | 1022.2 hPa | 0 mm | - | 713 W/m² | - |
| 1778163979 | 29.44° C | 79% | 1022.4 hPa | 0 mm | - | 703 W/m² | - |
| 1778163676 | 30° C | 79% | 1022.3 hPa | 0 mm | - | 694 W/m² | - |
| 1778163372 | 29.44° C | 80% | 1022.5 hPa | 0 mm | - | 688 W/m² | - |
| 1778163069 | 29.44° C | 79% | 1022.4 hPa | 0 mm | - | 690 W/m² | - |
| 1778162765 | 30.56° C | 77% | 1022.3 hPa | 0 mm | - | 687 W/m² | - |
| 1778162463 | 29.44° C | 79% | 1022.5 hPa | 0 mm | - | 255 W/m² | - |
| 1778162160 | 29.44° C | 78% | 1022.6 hPa | 0 mm | - | 680 W/m² | - |
| 1778161852 | 29.44° C | 78% | 1022.4 hPa | 0 mm | - | 176 W/m² | - |
| 1778161548 | 30° C | 77% | 1022.4 hPa | 0 mm | - | 624 W/m² | - |
| 1778161243 | 30° C | 77% | 1022.2 hPa | 0 mm | - | 586 W/m² | - |
| 1778160940 | 30° C | 77% | 1022.2 hPa | 0 mm | - | 575 W/m² | - |
| 1778160638 | 29.44° C | 76% | 1022.1 hPa | 0 mm | - | 564 W/m² | - |
| 1778160334 | 30° C | 76% | 1022.1 hPa | 0 mm | - | 549 W/m² | - |
* Rain latest hour (hover to see other rain measurements)
** Current wind speed in m/s (hover to see current wind gust speed)